CST,Max TemperatureF,Mean TemperatureF,Min TemperatureF,Max Dew PointF,MeanDew PointF,Min DewpointF,Max Humidity, Mean Humidity, Min Humidity, Max Sea Level PressureIn, Mean Sea Level PressureIn, Min Sea Level PressureIn, Max VisibilityMiles, Mean VisibilityMiles, Min VisibilityMiles, Max Wind SpeedMPH, Mean Wind SpeedMPH, Max Gust SpeedMPH,PrecipitationIn, CloudCover, Events, WindDirDegrees
2012-11-1,52,40,27,34,26,21,86,63,29,29.92,29.87,29.84,10,10,10,14,7,16,0.00,4,,281
2012-11-2,49,41,33,34,30,23,91,70,36,30.14,30.05,29.90,10,10,10,9,5,,0.00,1,,353
2012-11-3,44,38,32,36,33,32,99,81,61,30.21,30.18,30.12,10,10,10,12,4,,0.00,6,,57
2012-11-4,49,39,29,36,30,22,100,73,36,30.23,30.20,30.17,10,10,2,10,3,18,0.00,3,,343
2012-11-5,46,35,24,35,29,25,100,83,52,30.20,30.17,30.12,10,7,0,12,2,,0.00,4,Fog,59
2012-11-6,43,34,25,39,33,25,100,93,69,30.12,29.99,29.89,10,5,0,9,3,,0.08,6,Fog-Rain,142
2012-11-7,46,42,39,41,40,38,100,90,74,30.17,30.05,29.89,10,4,1,8,4,,0.01,8,,46
2012-11-8,46,40,33,41,37,32,100,86,67,30.24,30.17,30.12,10,7,2,10,3,,0.00,5,,184
2012-11-9,59,46,32,47,41,32,99,82,62,30.13,30.05,29.99,10,8,2,14,6,20,0.00,1,,138
2012-11-10,71,59,47,54,49,44,87,69,47,30.02,29.97,29.90,10,10,10,24,11,31,0.00,2,,168
2012-11-11,68,56,43,54,49,41,99,71,54,30.00,29.91,29.80,10,9,3,37,20,50,0.22,4,Rain,185
2012-11-12,41,35,29,40,28,23,96,79,59,30.36,30.18,29.97,10,10,5,22,15,31,0.17,6,Rain-Snow,255
2012-11-13,39,30,21,27,24,21,95,76,53,30.52,30.47,30.36,10,10,10,10,5,,0.00,0,,260
2012-11-14,43,34,26,29,27,24,95,78,52,30.55,30.47,30.40,10,10,10,14,3,,0.00,0,,128
2012-11-15,46,35,24,33,29,24,100,84,51,30.41,30.37,30.34,10,7,2,5,2,,0.00,0,,149
2012-11-16,52,38,24,35,29,24,99,78,44,30.48,30.45,30.39,10,6,0,5,1,,0.00,0,Fog,130
2012-11-17,53,38,24,35,31,24,99,76,43,30.56,30.50,30.45,10,6,0,9,2,,0.00,0,Fog,114
2012-11-18,57,44,30,37,33,29,96,72,39,30.45,30.40,30.34,10,9,5,8,5,,0.00,0,,114
2012-11-19,57,46,34,41,37,32,92,71,50,30.33,30.23,30.13,10,10,10,12,5,,0.00,3,,158
2012-11-20,57,46,35,47,44,35,100,81,66,30.18,30.12,30.08,10,8,0,8,3,,0.00,7,Fog,287
2012-11-21,60,46,33,50,41,34,100,91,65,30.27,30.20,30.13,10,4,0,10,2,,0.00,4,Fog,194
2012-11-22,62,51,40,50,45,38,98,81,58,30.13,29.97,29.85,10,7,2,25,13,34,0.07,3,Rain,185
2012-11-23,42,34,27,37,24,18,87,72,62,30.24,30.10,29.93,10,10,10,30,18,40,0.07,5,,284
2012-11-24,32,30,27,24,20,18,83,71,61,30.28,30.18,30.02,10,10,10,12,7,16,0.00,5,,247
2012-11-25,45,37,29,29,27,25,86,68,49,30.09,29.94,29.87,10,10,10,12,7,,0.00,3,,255
2012-11-26,36,32,28,28,22,17,83,65,47,30.35,30.24,30.09,10,10,10,10,5,,0.00,6,,331
2012-11-27,34,26,19,23,15,11,81,63,40,30.44,30.34,30.29,10,10,10,9,5,,0.00,1,,276
2012-11-28,45,34,23,27,22,18,83,65,40,30.40,30.34,30.29,10,10,10,13,7,16,0.00,1,,236
2012-11-29,52,40,28,35,30,25,87,73,51,30.31,30.20,30.11,10,10,10,17,9,22,0.00,0,,167
2012-11-30,56,44,31,37,34,30,96,74,46,30.14,30.10,30.05,10,10,10,10,4,,0.00,1,,179